Weather History for Mountain Home, ID

Change the Weather History Date:

Tuesday, January 14, 2014

  Actual Average Record
Temperature  
Mean Temperature 37 °F 30 °F  
Max Temperature 47 °F 38 °F 56 °F (2003)
Min Temperature 27 °F 22 °F -11 °F (1917)
Degree Days  
Heating Degree Days 28 35  
Month to date heating degree days 450 496  
Cooling Degree Days 0 0  
Month to date cooling degree days 0 0  
Moisture  
Dew Point 32 °F    
Average Humidity 90    
Maximum Humidity 100    
Minimum Humidity 57    
Precipitation  
Precipitation 0.00 in 0.03 in 0.42 in (1918)
Month to date precipitation 0.30 0.54  
Sea Level Pressure  
Sea Level Pressure 30.67 in    
Wind  
Wind Speed 10 mph (West)    
Max Wind Speed 14 mph    
Max Gust Speed -    
Visibility 10 miles    
Events      
T = Trace of Precipitation, MM = Missing Value Source: NWS Daily Summary

Daily Weather History Graph

Daily Weather History Graph

Search for Another Location

Airport:

Trip Planner

Search our weather history database for the weather conditions in past years. The results will help you decide how hot, cold, wet, or windy it might be!

Date:

Astronomy

Jan. 14, 2014 Rise Set
Actual Time 8:12 AM MST 5:33 PM MST
Civil Twilight 7:40 AM MST 6:04 PM MST
Nautical Twilight 7:05 AM MST 6:39 PM MST
Astronomical Twilight 6:31 AM MST 7:13 PM MST
Moon 4:43 PM MST (1/14) 6:49 AM MST (1/14)
Length of Visible Light 10h 23m
Length of Day
9h 20m
Waxing Gibbous, 98% of the Moon is Illuminated
Jan 14
Waxing Gibbous
Jan 15
Full
Jan 23
Last Quarter
Jan 30
New
Feb 6
First Quarter

Hourly Weather History & Observations

Time (MST) Temp. Windchill Dew Point Humidity Pressure Visibility Wind Dir Wind Speed Gust Speed Precip Events Conditions
12:58 AM 34.0 °F 25.0 °F 33.6 °F 99% 30.60 in 10.0 mi West 12.7 mph - N/A   Clear
1:58 AM 32.5 °F 24.8 °F 32.4 °F 99% 30.61 in 10.0 mi West 9.2 mph - N/A   Clear
2:58 AM 32.4 °F 24.6 °F 32.2 °F 99% 30.63 in 10.0 mi West 9.2 mph - N/A   Clear
3:58 AM 31.3 °F 22.1 °F 31.1 °F 99% 30.63 in 10.0 mi West 11.5 mph - N/A   Clear
4:58 AM 31.6 °F 22.6 °F 31.5 °F 99% 30.65 in 10.0 mi WNW 11.5 mph - N/A   Clear
5:58 AM 32.5 °F 24.2 °F 32.4 °F 99% 30.66 in 10.0 mi WNW 10.4 mph - N/A   Clear
6:58 AM 31.5 °F 23.5 °F 31.3 °F 99% 30.66 in 10.0 mi NNW 9.2 mph - N/A   Clear
7:58 AM 27.7 °F 19.6 °F 27.7 °F 100% 30.69 in 10.0 mi SW 8.1 mph - N/A   Partly Cloudy
8:58 AM 31.1 °F - 30.7 °F 99% 30.72 in 10.0 mi WSW 2.3 mph - N/A   Partly Cloudy
9:58 AM 34.3 °F 27.0 °F 34.2 °F 99% 30.73 in 10.0 mi West 9.2 mph - N/A   Clear
10:58 AM 39.4 °F 35.2 °F 35.1 °F 84% 30.74 in 10.0 mi West 5.8 mph - N/A   Partly Cloudy
11:58 AM 42.6 °F 37.2 °F 35.2 °F 75% 30.72 in 10.0 mi WNW 9.2 mph - N/A   Clear
12:58 PM 44.8 °F 39.4 °F 35.8 °F 71% 30.70 in 10.0 mi West 10.4 mph - N/A   Clear
1:58 PM 46.6 °F - 33.8 °F 61% 30.67 in 10.0 mi WNW 12.7 mph - N/A   Clear
2:58 PM 47.1 °F - 32.5 °F 57% 30.65 in 10.0 mi WNW 13.8 mph - N/A   Clear
3:58 PM 47.1 °F - 33.8 °F 60% 30.65 in 10.0 mi NW 11.5 mph - N/A   Clear
4:58 PM 44.8 °F 40.4 °F 33.8 °F 65% 30.65 in 10.0 mi WNW 8.1 mph - N/A   Clear
5:58 PM 36.9 °F 29.6 °F 34.3 °F 91% 30.66 in 10.0 mi West 10.4 mph - N/A   Partly Cloudy
6:58 PM 35.2 °F 27.1 °F 34.9 °F 99% 30.66 in 10.0 mi WNW 11.5 mph - N/A   Partly Cloudy
7:58 PM 32.5 °F 24.8 °F 32.4 °F 99% 30.67 in 10.0 mi WNW 9.2 mph - N/A   Partly Cloudy
8:58 PM 32.0 °F 27.5 °F 31.8 °F 99% 30.68 in 10.0 mi WNW 4.6 mph - N/A   Clear
9:58 PM 30.7 °F - 30.7 °F 100% 30.67 in 10.0 mi Variable 2.3 mph - N/A   Clear
10:58 PM 28.9 °F 22.8 °F 28.9 °F 100% 30.66 in 10.0 mi South 5.8 mph - N/A   Clear
11:58 PM 27.5 °F 22.2 °F 27.5 °F 100% 30.66 in 10.0 mi WNW 4.6 mph - N/A   Clear